Location: Wanzleben
(52.0609°N, 11.4408°E)
Time: 01:31:24
(UTC+00:00)

USA 229 DEB - Pass Details

Date: 18 September 2020
Orbit: 971 x 1241 km, 63.4° (Epoch: 14 October)

Event Time Altitude Azimuth Distance (km) Brightness Sun altitude
Rises 22:27:03 0° 308° (NW) 3,880 7.3 -35.8°
Reaches altitude 10° 22:29:46 10° 314° (NW) 2,961 6.6 -35.9°
Maximum altitude 22:36:38 50° 29° (NNE) 1,434 4.4 -36.1°
Enters shadow 22:37:21 49° 48° (NE) 1,466 4.4 -36.1°
